AirNav   Everest Fuels
 
 640 users online  

04WN Stillwater Creek Airport
Royal City, Washington, USA

GOING TO ROYAL CITY?


FAA INFORMATION EFFECTIVE 05 DECEMBER 2019

Location

FAA Identifier: 04WN
Lat/Long: 46-57-30.0900N 119-38-19.7500W
46-57.501500N 119-38.329167W
46.9583583,-119.6388194
(estimated)
Elevation: 1510 ft. / 460 m (estimated)
From city: 4 miles NNW of ROYAL CITY, WA
Time zone: UTC -8 (UTC -7 during Daylight Saving Time)
Zip code: 99357

Airport Operations

Airport use: Private use. Permission required prior to landing
Activation date: 02/2007
Control tower: no
ARTCC: SEATTLE CENTER
FSS: SEATTLE FLIGHT SERVICE STATION
Attendance: UNATNDD
Segmented circle: no

Airport Communications

WX ASOS at MWH (20 nm NE): PHONE 509-762-5082

Nearby radio navigation aids

VOR radial/distance  VOR name  Freq  Var
MWHr203/20.1MOSES LAKE VOR/DME115.0018E
EPHr178/26.7EPHRATA VORTAC112.6021E
ELNr076/33.8ELLENSBURG VOR/DME117.9021E
EATr124/35.3WENATCHEE VOR/DME111.0015E

Airport Services

Runway Information

Runway 11/29

Dimensions: 4100 x 60 ft. / 1250 x 18 m
Surface: asphalt
RUNWAY 11  RUNWAY 29
Traffic pattern: leftleft

Airport Ownership and Management from official FAA records

Ownership: Privately-owned
Owner: STILLWATER CREEK VINEYARD
8791 ROAD G5 SW
ROYAL CITY, WA 99357
Phone 206-674-3000
Manager: KEITH VERNON
1000 2ND AVE STE 3700
SEATTLE, WA 98104
Phone 206-674-8709

Additional Remarks

FOR CD CTC GRANT COUNTY APCH AT 509-762-2842, WHEN APCH CLSD CTC SEATTLE ARTCC AT 253-351-3694.

Instrument Procedures

There are no published instrument procedures at 04WN.

Some nearby airports with instrument procedures:

KMWH - Grant County International Airport (20 nm NE)
KEPH - Ephrata Municipal Airport (22 nm N)
KEAT - Pangborn Memorial Airport (35 nm NW)
KELN - Bowers Field Airport (37 nm W)
KRLD - Richland Airport (42 nm S)
 
Loc | Ops | Rwys | IFR | FBO | Links
Com | Nav | Svcs | Stats | Notes
Area around 04WN (Stillwater Creek Airport)
 
Road maps at: MapQuest Bing Google
 
Aerial photo
No photo
 
Sectional chart

 
Airport distance calculator
Flying to Stillwater Creek Airport? Find the distance to fly.

From to 04WN

Sunrise and sunset
Times for 06-Dec-2019
 Local
(UTC-8)
 Zulu
(UTC)
Morning civil twilight06:5514:55
Sunrise07:3015:30
Sunset16:0900:09
Evening civil twilight16:4400:44

Current date and time
Zulu (UTC)  06-Dec-2019 10:55:12
Local (UTC-8)  06-Dec-2019 02:55:12
 
METAR
KMWH 
20nm NE 
061032Z AUTO 13003KT 1 1/4SM BR OVC002 01/M01 A3011 RMK AO2 T00111006
KEPH 
21nm N 
061027Z AUTO 00000KT 4SM BR BKN011 OVC018 02/01 A3011 RMK AO2 T00170011
KEAT 
35nm NW 
060955Z AUTO 00000KT 10SM OVC022 02/00 A3010 RMK AO2 SLP202 T00170000
KELN 
37nm W 
060953Z AUTO 00000KT 5SM BR OVC015 03/02 A3008 RMK AO2 SLP196 T00330017
TAF
KMWH 
20nm NE 
060818Z 0608/0706 VRB03KT 1/2SM FZFG OVC002 TEMPO 0608/0612 1SM BR OVC004 FM061400 12003KT 1SM BR OVC003 FM062000 VRB03KT 6SM BR SCT025 BKN040 BKN090 FM070200 00000KT 4SM BR OVC025
NOTAMs
Click for the latest NOTAMs
NOTAMs are issued by the DoD/FAA and will open in a separate window not controlled by AirNav.

 

 
 

Would you like to see your business listed on this page?

 If your business provides an interesting product or service to pilots, flight crews, aircraft, or users of the Stillwater Creek Airport, you should consider listing it here.  To start the listing process, click on the button below
 
Add a business
 

Other Pages about Stillwater Creek Airport

Update a link
 
Copyright © AirNav, LLC. All rights reserved. Privacy Policy  Contact